World > North America > United States > Texas

Fort Wolters, Texas Regional Weather

Lat: 32.81N, Lon: 98.11W
Wx Zone: TXZ116Web Search
Fort Wolters Weather Warning NWS WEATHER ALERT FOR THE FORT WOLTERS, TX AREA - Issued: 347 AM CDT Fri Apr 16 2021 Fort Wolters Weather Warning  

Pass this page to a friend. Tell them to point their camera at the QR Code near the bottom of this page.

Feedback


°F Click to change Fort Wolters hourly weather to Imperial units.Click to change Fort Wolters hourly weather to Metric units. °C
Fort Wolters Weather Map
UTC Time: 4/16/2021, 11:23
Your Time:

Fort Wolters, TX Regional Weather

Expires:202104161200;;637961
ASUS44 KFWD 161115
RWRTX 
NORTH TEXAS HOURLY WEATHER ROUNDUP
NATIONAL WEATHER SERVICE FORT WORTH TX
600 AM CDT FRI APR 16 2021

NOTE: "FAIR" INDICATES FEW OR NO CLOUDS BELOW 12,000 FEET WITH NO
SIGNIFICANT WEATHER AND/OR OBSTRUCTIONS TO VISIBILITY.


TXZ083>090-098>101-113>116-127>130-139>142-154-155-161200-
WESTERN NORTH TEXAS
  
CITY           SKY/WX    TMP DP  RH WIND       PRES   REMARKS
WICHITA FALLS  LGT RAIN  53  53 100 CALM      29.83S FOG              
WF-KICKAPOO    CLOUDY    54  53  98 NE10      29.84F FOG              
VERNON         CLOUDY    51  51 100 N7        29.88R                  
ABILENE        CLOUDY    57  55  93 S10       29.78F FOG              
ABILENE-DYESS  CLOUDY    56  55  97 SE10      29.78F FOG              
BRECKENRIDGE   CLOUDY    57  57 100 CALM      29.80S                  
CISCO          FOG       55  55 100 SE9       29.78F VSB 1/2          
EASTLAND       LGT RAIN  55 N/A N/A SE7       29.80F FOG              
RANGER         HVY RAIN  55  55 100 CALM      29.82R                  
MINERAL WELLS  LGT RAIN  57  56  96 SE9       29.80F FOG              
STEPHENVILLE   CLOUDY    58  56  94 SE9       29.83F                  
COMANCHE       CLOUDY    57  57 100 SE7       29.81F FOG              
BROWNWOOD      CLOUDY    57  57 100 SE7       29.81S                  
COLEMAN        FOG       57  57  97 SE5       29.81S VSB 1            
BRADY          CLOUDY    57  57 100 SE8       29.79F FOG              
$$


SKY/WX - Weather  TMP - Temperature  DP - Dew Point  RH - Relative Humidity
WIND - Wind Direction/Speed PRES - Barometric Pressure VSB - Visibility
WCI - Wind Chill Index E13G22 Wind - East Wind 13 mph/Gusts of 22 mph